Flag for United Kingdom

Past Weather in Rotherham, England, United Kingdom — Yesterday and Last 2 Weeks

Now
59 °F

Cool.


Feels Like: 58 °F
Forecast: 62 / 53 °F
Wind: 5 mph from Northeast

Location: Nottingham Weather Centre

Current Time: Jul 2, 2020 at 6:07:01 pm

Latest Report: Jul 2, 2020 at 5:00 pm


Visibility: 31 mi

Pressure: 29.90 "Hg

Humidity: 81%

Dew Point: 53 °F

Location of RotherhamLocation

Past Weather in Rotherham — Graph

°F

Rotherham Temperature Yesterday

Maximum temperature yesterday: 67 °F (at 7:00 pm)
Minimum temperature yesterday: 55 °F (at 7:00 am)
Average temperature yesterday: 61 °F

High & Low Weather Summary for the Past Weeks

 TemperatureHumidityPressure
High84 °F (Jun 25, 4:00 pm)98% (Jun 18, 6:00 am)30.23 "Hg (Jun 18, 6:00 am)
Low47 °F (Jun 22, 4:00 am)34% (Jun 25, 3:00 pm)29.47 "Hg (Jun 27, 3:00 pm)
Average62 °F75%29.87 "Hg
* Reported Jun 17 4:00 pm — Jul 2 4:00 pm, Rotherham. Weather by CustomWeather, © 2020

Note: Actual official high and low records may vary slightly from our data, if they occured in-between our weather recording intervals... More about our weather records

Rotherham Weather History for the Previous 24 Hours

Scroll right to see more
 ConditionsComfort  
Time TempWeatherWind HumidityBarometerVisibility
4:00 pm
Thu, Jul 2
58 °FCool.5 mph85%29.90 "Hg25 mi
3:00 pm57 °FCool.6 mph86%29.89 "Hg16 mi
2:00 pm57 °FCool.5 mph86%29.88 "Hg28 mi
1:00 pm56 °FCool.7 mph89%29.86 "Hg28 mi
12:00 pm57 °FCool.6 mph89%29.84 "Hg22 mi
11:00 am56 °FDrizzle. Cloudy.7 mph92%29.82 "Hg25 mi
10:00 am55 °FDrizzle. Cloudy.7 mph96%29.80 "Hg4 mi
9:00 am55 °FDrizzle. Cloudy.7 mph97%29.78 "Hg1 mi
8:00 am54 °FRain. Cloudy.7 mph96%29.77 "Hg1 mi
7:00 am55 °FDrizzle. Cloudy.7 mph91%29.75 "Hg3 mi
6:00 am55 °FCool.7 mph89%29.74 "Hg22 mi
5:00 am55 °FCool.8 mph89%29.73 "Hg22 mi
4:00 am55 °FCool.6 mph89%29.73 "Hg22 mi
3:00 am55 °FCool.7 mph89%29.73 "Hg25 mi
2:00 am55 °FCool.7 mph90%29.73 "Hg28 mi
1:00 am56 °FCool.9 mph88%29.72 "Hg34 mi
12:00 am58 °FCool.6 mph92%29.73 "Hg11 mi
11:00 pm
Wed, Jul 1
58 °FCool.7 mph91%29.72 "Hg19 mi
10:00 pm60 °FCool.7 mph83%29.70 "Hg31 mi
9:00 pm62 °FCool.7 mph78%29.69 "Hg28 mi
8:00 pm65 °FMild.6 mph65%29.67 "Hg37 mi
7:00 pm67 °FMild.6 mph62%29.67 "Hg47 mi
6:00 pm66 °FMild.7 mph60%29.66 "Hg47 mi
Weather by CustomWeather, © 2020

See weather overview